TimeMDT,TemperatureF,Dew PointF,Humidity,Sea Level PressureIn,VisibilityMPH,Wind Direction,Wind SpeedMPH,Gust SpeedMPH,PrecipitationIn,Events,Conditions,WindDirDegrees,DateUTC
12:53 AM,24.1,-0.0,35,30.23,9.0,East,5.8,-,0.00,Snow,Light Snow,90,2012-10-27 06:53:00
1:53 AM,21.9,1.0,40,30.22,10.0,ENE,5.8,-,0.00,,Clear,70,2012-10-27 07:53:00
2:53 AM,21.0,-0.9,38,30.21,10.0,East,5.8,-,N/A,,Clear,90,2012-10-27 08:53:00
3:53 AM,19.0,-0.9,42,30.22,10.0,East,4.6,-,N/A,,Clear,80,2012-10-27 09:53:00
4:53 AM,17.1,-0.0,47,30.23,10.0,NE,3.5,-,0.00,,Clear,40,2012-10-27 10:53:00
5:53 AM,18.0,-0.0,45,30.25,10.0,Calm,Calm,-,N/A,,Clear,0,2012-10-27 11:53:00
6:53 AM,15.1,1.9,56,30.28,10.0,NE,4.6,-,N/A,,Clear,50,2012-10-27 12:53:00
7:53 AM,16.0,1.0,52,30.31,10.0,East,3.5,-,N/A,,Clear,80,2012-10-27 13:53:00
9:53 AM,37.9,3.9,24,30.26,10.0,Calm,Calm,-,N/A,,Clear,0,2012-10-27 15:53:00
10:53 AM,45.0,-4.0,13,30.22,10.0,Calm,Calm,-,N/A,,Clear,0,2012-10-27 16:53:00
11:53 AM,50.0,-4.0,11,30.20,10.0,Variable,3.5,-,N/A,,Clear,0,2012-10-27 17:53:00
12:53 PM,53.1,-0.9,11,30.16,10.0,SSW,11.5,19.6,N/A,,Clear,200,2012-10-27 18:53:00
1:53 PM,55.0,-0.0,11,30.13,10.0,WSW,9.2,23.0,N/A,,Clear,240,2012-10-27 19:53:00
2:53 PM,57.0,1.9,11,30.11,10.0,West,12.7,-,N/A,,Clear,270,2012-10-27 20:53:00
3:53 PM,57.0,1.0,10,30.11,10.0,West,12.7,-,N/A,,Clear,270,2012-10-27 21:53:00
4:53 PM,55.0,1.0,11,30.13,10.0,West,13.8,27.6,N/A,,Clear,280,2012-10-27 22:53:00
5:53 PM,51.1,-0.0,12,30.14,10.0,West,9.2,17.3,N/A,,Clear,260,2012-10-27 23:53:00
6:53 PM,48.0,-0.0,14,30.18,10.0,WNW,4.6,-,N/A,,Clear,290,2012-10-28 00:53:00
7:53 PM,46.0,1.0,16,30.22,10.0,West,3.5,-,N/A,,Clear,280,2012-10-28 01:53:00
8:53 PM,39.9,5.0,23,30.20,10.0,Calm,Calm,-,N/A,,Clear,0,2012-10-28 02:53:00
10:53 PM,33.1,6.1,32,30.20,10.0,ENE,8.1,-,N/A,,Clear,60,2012-10-28 04:53:00
11:53 PM,32.0,8.1,37,30.18,10.0,ENE,5.8,-,N/A,,Clear,70,2012-10-28 05:53:00